STARLINK-34843, 65201

Orbit data source: Space-Track

STARLINK-34843, 65201 is a payload satellite owned by SpaceX/Seattle (US) in LEO that was launched on Thu, 14 Aug 2025 UTC via an FALCON 9 launch vehicle from the Air Force Eastern Test Range (AFETR). Payload-class satellites include a variety of spacecraft equipped with specific instruments for various scientific and technological missions. These include communications satellites like Starlink; space stations such as the ISS; scientific satellites like the Hubble; Earth observation satellites from companies like Planet Labs, Umbra, and HawkEye 360; GPS; miniature CubeSats for education and research; and military/defense satellites.

Loading next visibility...
Identifier
65201, 2025-176D
Orbit
LEO
Country
Flag of USUS
Related business
Manufacturer
SpaceX/Seattle
Mission
Operational Commercial Communications
Bus & Motor
STARLINK V2MO, Unknown motor
Mass
575 kg wet, ~530 kg dry
Launch date (UTC)
2025-08-14 (10 months ago)
Launch vehicle
FALCON 9
Launch site
Air Force Eastern Test Range (AFETR)
Object type
Payload
Rocket body
Debris
Shape & HBR
Box + 2 Pan, 17.7 m
Radar Cross Section
36.964 m², Large (>1 m²)

Expand to show TLE details & history
Last TLE update: 22 hours ago

TLE from 22 hours ago
0 STARLINK-34843
1 65201U 25176D   26170.91921641  .00023302  00000-0  69851-3 0  9996
2 65201  53.1581  36.3651 0001041  68.9848 291.1266 15.34406186 48795
Epoch: 2026-06-19T22:03Z
TLE epoch observation values (Epoch: 2026-06-19T22:03:40.297Z)
Latitude
-0.00003°
Longitude
157.30589°
Altitude
463.329 km
Speed
7.636 km/s
True Right ascension
02h 25m 27s
True Declination
0° 00' 00"
Sunlit
Object was in daylight at epoch
Visualization orbit readout
Latitude
Unknown
Longitude
Unknown
Altitude
Unknown
Speed
Unknown
Apparent Right ascension
Unknown
Apparent Declination
Unknown
Sunlit
N/A
Visualization observer readout
Local Sidereal Time
07:19:26
Azimuth
Unknown
Elevation
Unknown
Doppler factor
Unknown
Orbital elements
Apogee altitude
463.654 km
Perigee altitude
462.23 km
Semi-major axis
6,841.079 km
Eccentricity
0.0001
Inclination
53.1581°
RAAN
36.3651°
Arg. of periapsis
68.9848°
True anomaly
291.11547°
Mean anomaly
291.1266°
Eccentric anomaly
291.12104°
Mean motion
3.8358 °/min
Orbital period
93.85 mins
BSTAR
0.00069851
Loading maneuver chart data...
Computing Atmospheric mass density...
Loading historical data...
Loading historical data...
Loading historical data...
Loading historical data...
Loading historical data...
Loading historical data...
Loading historical data...

Documentation

Showing up to 5 results
|